TELKOM 3                
1 38744U 12044A   19258.89858430  .00042823  70557-5  34876-3 0  9996
2 38744  49.8734  94.0395 0837319 257.8914  92.7065 14.14145071214587
EXPRESS-MD2             
1 38745U 12044B   19258.75541593  .00005753  26966-5  17199-3 0  9996
2 38745  49.8856  99.7672 2223844 190.8471 163.5451 10.99509184276976
BREEZE-M R/B            
1 38746U 12044C   19258.86302573  .00001460  00000-0  93713-4 0  9996
2 38746  49.6865  93.3753 2411163 317.3944  26.2616 10.49771176257872
BREEZE-M DEB            
1 38884U 12044R   19258.23706943  .00005148  30237-5  16351-3 0  9998
2 38884  50.0049 209.9375 2303644  64.5163 317.5592 10.82806372266837
BREEZE-M DEB            
1 38888U 12044V   19258.25868350  .00011653  37987-5  21995-3 0  9992
2 38888  50.0353 193.3664 1785214 300.8923  42.8243 11.96858031284478
BREEZE-M DEB            
1 38921U 12044BE  19258.53671634  .00034927  61595-5  42902-3 0  9990
2 38921  50.1911 261.3857 1400884 117.4222 257.6044 12.84685086290577
BREEZE-M DEB            
1 38922U 12044BF  19258.46635763  .00007621  26068-5  19116-3 0  9994
2 38922  50.0776 317.0582 2131408 253.9983  81.7118 11.20403603273597
BREEZE-M DEB            
1 38926U 12044BK  19258.24708042  .00014357  44007-5  27105-3 0  9999
2 38926  50.0045 200.7784 1544960 237.8948 106.2751 12.48111279291833
BREEZE-M DEB            
1 38948U 12044CH  19258.74559124  .00012688  53529-5  25093-3 0  9991
2 38948  50.0649  22.1997 1666736  68.4121 308.5709 12.21843601288025
BREEZE-M DEB            
1 38959U 12044CS  19258.49132567  .00046479  67155-5  47647-3 0  9997
2 38959  49.9796 337.0078 1084061   4.6349 356.3664 13.56332429262230
BREEZE-M DEB            
1 38960U 12044CT  19257.56098668  .00017307  48903-5  38704-3 0  9991
2 38960  50.1249  23.6759 1859877 116.8107 263.4773 11.78569923228476
BREEZE-M DEB            
1 38961U 12044CU  19258.71006833  .00013841  53792-5  26608-3 0  9994
2 38961  50.0752  10.9708 1664515  71.7797 305.6591 12.22581553281711
BREEZE-M DEB            
1 38971U 12044DE  19257.30442056  .00015849  48264-5  28673-3 0  9992
2 38971  50.0783 214.0930 1515157 201.8687 151.0206 12.55116021290997
BREEZE-M DEB            
1 44525U 12044DV  19258.46315727  .00021258  54741-5  36904-3 0  9990
2 44525  50.0028  45.8946 1629175  66.5595 309.7856 12.31027191287024